Location: Northcutt
(34.7304°N, 84.4305°W)
Time: 08:23:17
(UTC+00:00)

S-56A Canister/Altair - Pass Details

Date: 05 October 2022
Orbit: 638 x 2494 km, 38.9° (Epoch: 08 December)

Event Time Altitude Azimuth Distance (km) Brightness Sun altitude
Rises 12:23:47 0° 287° (WNW) 4,130 10.6 9.0°
Reaches altitude 10° 12:27:23 10° 278° (W) 2,858 9.9 9.7°
Maximum altitude 12:32:50 28° 221° (SW) 1,514 8.9 10.8°
Drops below altitude 10° 12:37:04 10° 162° (SSE) 2,181 10.4 11.6°
Sets 12:39:28 0° 150° (SSE) 2,995 11.3 12.1°
